Location: Mason Neck State Park
(38.6428°N, 77.1981°W)
Time: 22:54:23
(UTC-05:00)

Cosmos 2278 Rocket - Visible Passes

Search period start: 13 February 2016 00:00
Search period end: 23 February 2016 00:00
Orbit: 842 x 845 km, 71.0° (Epoch: 12 February)

Date Brightness Start Highest point End Pass type
(mag) Time Alt. Az. Time Alt. Az. Time Alt. Az.
13 Feb 3.8 06:14:17 10° S 06:19:32 40° ESE 06:24:47 10° NE visible
14 Feb 3.8 05:59:50 10° S 06:05:01 38° ESE 06:10:13 10° NE visible
15 Feb 3.9 05:45:23 10° S 05:50:31 37° ESE 05:55:39 10° NE visible
16 Feb 3.9 05:30:56 10° SSE 05:36:00 35° ESE 05:41:05 10° NE visible
17 Feb 3.9 05:16:29 10° SSE 05:21:29 33° ESE 05:26:31 10° NE visible
18 Feb 4.0 05:02:02 10° SSE 05:06:59 32° ESE 05:11:56 10° NE visible
19 Feb 4.0 04:47:37 10° SSE 04:52:29 31° ESE 04:57:22 10° NE visible
20 Feb 4.0 04:33:10 10° SSE 04:37:58 29° ESE 04:42:47 10° NE visible
20 Feb 2.7 06:16:40 10° SW 06:21:52 37° WNW 06:27:06 10° N visible
21 Feb 4.0 04:18:44 10° SSE 04:23:28 28° ESE 04:28:12 10° NE visible
21 Feb 2.7 06:02:05 10° SW 06:07:20 38° WNW 06:12:36 10° N visible
22 Feb 4.1 04:04:43 12° SSE 04:08:57 27° ESE 04:13:35 10° NE visible
22 Feb 2.6 05:47:30 10° SW 05:52:47 40° WNW 05:58:06 10° N visible
